ONEWEB-0094 (45450 NORAD) Tracking and Keplerian Element Data

This shows tracking and keplerian element data for the satellite.

Feedback or suggestion? Click here.




ElementValue
Catalog45450
NameONEWEB-0094
Epoch Orbit1588
Epoch Day187.58334491
Epoch Year2020
RAAN104.275
Inclination87.5785
Eccentricity0.0024288
Argument of Perigee280.2143
Mean Anonmoly76.2835
Mean Motion14.90104936
Decay Rate0.00041263
L11 45450U 20020AC 20187.58334491 .00041263 00000-0 42241-2 0 9998
L22 45450 87.5785 104.2750 0024288 280.2143 76.2835 14.90104936 15883

Live tracking and technical data element details for ONEWEB-0094 (NORAD 45450). ONEWEB-0094 can be tracked NOW for your location showing map with azimuth and elevation plus other details from your city location.

Track the satellite on the map from your city or location and see movement details for azimuth, elevation, latitude, longitude, range, height, and movement on the map or in text.







IsCatalogInMostPopularTable: catalog: 45450, numindb: 24
Update: records affected: 1



GetName: 45450 ONEWEB-0094

Hit Count: updated at: Mon, 06 Jul 2020 06:43:36 GMT